Regional Weather Roundup
Issued by NWS Sterling, VA

Home | Current Version | Previous Version | Text Only | Print | Product List | Glossary On
Versions: 1 2 3 4 5 6 7 8 9 10 11 12 13 14 15 16 17 18 19 20 21 22 23 24 25 26 27
000
ASUS41 KLWX 230111
RWRLWX

REGIONAL WEATHER ROUNDUP
NATIONAL WEATHER SERVICE BALTIMORE MD/WASHINGTON DC
800 PM EST THU FEB 22 2018

Note: "FAIR" indicates few or no clouds below 12,000 feet
with no significant weather and/or obstructions to visibility.
 TC=TEMPERATURE CELSIUS

 * =Non NWS site. Station does not report precipitation (e.g. rain,
    snow, etc.), thunder, or fog.

DCZ001-MDZ009-015-VAZ040>042-051-053>054-230200-
WASHINGTON METRO

CITY           SKY/WX    TMP DP  RH WIND       PRES   REMARKS
WASHINGTON NAT CLOUDY    45  42  89 NE16      30.57R
DULLES         CLOUDY    45  43  93 NE9       30.56R
ANDREWS AFB    CLOUDY    42  40  91 NE9       30.55R
FT BELVOIR     CLOUDY    45  42  88 E6        30.57R
QUANTICO       DRIZZLE   48  46  93 NE12      30.56R
COLLEGE PARK*  CLOUDY    42  39  88 E3        30.58R
LEESBURG*      CLOUDY    39  39 100 NE7       30.58R WCI  34
MANASSAS*      CLOUDY    45  44  97 N7        30.56R
GAITHERSBURG*  CLOUDY    42  41  96 VRB3      30.57R

$$

MDZ006>007-011-014-230200-
BALTIMORE METRO

CITY           SKY/WX    TMP DP  RH WIND       PRES   REMARKS
BWI AIRPORT    CLOUDY    43  41  93 E17G23    30.57R
MD SCIENCE CTR   N/A     44  40  85 MISG      30.59R
MARTIN STATE   CLOUDY    45  43  93 NE9G18    30.59S
ANNAPOLIS      CLOUDY    45  41  86 E10G22    30.57R
FORT MEADE*    CLOUDY    41  37  87 E10G18    30.60R WCI  35

$$

MDZ012-015-019>023-230200-
MARYLAND EASTERN SHORE

CITY           SKY/WX    TMP DP  RH WIND       PRES   REMARKS
OCEAN CITY     CLOUDY    42  41  96 NE15G29   30.56R WCI  34
SALISBURY      LGT RAIN  42  41  96 NE22G29   30.55R FOG     WCI  33
BAY BRIDGE AP* CLOUDY    41  39  93 E12G20    30.57S WCI  34
CAMBRIDGE*     CLOUDY    43  41  93 NE9G17    30.55S FOG
EASTON*        DRIZZLE   43  39  87 E14G22    30.59S

$$

MDZ017>025-230200-
SOUTHERN MARYLAND

CITY           SKY/WX    TMP DP  RH WIND       PRES   REMARKS
PATUXENT RIVER NOT AVBL
ST INIGOES     CLOUDY    45  44  97 NE10      30.54R FOG
LEONARDTOWN*   CLOUDY    45  43  93 NE6       30.55S

$$

MDZ003>005-230200-
NORTH CENTRAL MARYLAND

CITY           SKY/WX    TMP DP  RH WIND       PRES   REMARKS
FREDERICK*     CLOUDY    43  43 100 N9        30.61R
HAGERSTOWN APT CLOUDY    41  38  89 NE8       30.56R
WESTMINSTER*   CLOUDY    39  39 100 E8        30.56R WCI  34

$$

MDZ501>502-230200-
WESTERN MARYLAND

CITY           SKY/WX    TMP DP  RH WIND       PRES   REMARKS
OAKLAND*       CLOUDY    32  32 100 SE15      30.43S VSB 1/4 WCI  22
CUMBERLAND*    CLOUDY    41  39  93 CALM      30.59S

$$

VAZ025>031-230200-
SHENANDOAH VALLEY

CITY           SKY/WX    TMP DP  RH WIND       PRES   REMARKS
WINCHESTER*    CLOUDY    39  37  93 CALM      30.57S
FRONT ROYAL*   CLOUDY    41  41 100 N6        30.54S
LURAY*         CLOUDY    41  41 100 N7        30.54R
NEW MARKET*    CLOUDY    41  40  94 NE7       30.53R
STAUNTON*      CLOUDY    45  40  85 NE6       30.53R
WAYNESBORO*    CLOUDY    45  43  93 N3        30.50S

$$

WVZ021-048>050-054>055-230200-
EASTERN WEST VIRGINIA PANHANDLE

CITY           SKY/WX    TMP DP  RH WIND       PRES   REMARKS
MARTINSBURG    CLOUDY    41  39  93 N6        30.55R
PETERSBURG*    CLOUDY    41  39  94 CALM      30.53F

$$

VAZ036>039-050-230200-
CENTRAL FOOTHILLS

CITY           SKY/WX    TMP DP  RH WIND       PRES   REMARKS
CHARLOTTESVILL CLOUDY    47  44  90 NE13      30.53R
CULPEPER*      CLOUDY    46  43  90 N8        30.56R
ORANGE*        CLOUDY    43  43 100 N7        30.54R
GORDONSVILLE*  CLOUDY    45  45 100 NE9       30.53R
WARRENTON*     CLOUDY    46  42  86 N7        30.54R

$$

VAZ055>057-230200-
NORTH AND CENTRAL PIEDMONT

CITY           SKY/WX    TMP DP  RH WIND       PRES   REMARKS
FREDERICKSBRG* HVY RAIN  47  47 100 E9G16     30.54R
STAFFORD*      RAIN      48  48 100 NE6       30.58R

$$

NCZ024-NYZ072-PAZ021-071-VAZ022-071-230200-
OTHER REGIONAL OBSERVATIONS

CITY           SKY/WX    TMP DP  RH WIND       PRES   REMARKS
NEW YORK CITY  CLOUDY    38  34  85 NE10      30.64F WCI  31
PHILADELPHIA   CLOUDY    40  36  86 E13       30.59F WCI  32
PITTSBURGH     DRIZZLE   40  39  97 E8        30.45F FOG     WCI  34
ROANOKE        CLOUDY    67  54  63 N13       30.41R
RICHMOND       CLOUDY    50  47  89 N16       30.52R
RALEIGH        FAIR      68  60  75 S7        30.40R

$$

ANZ530>537-230200-
MARINE OBSERVATIONS

STATION/POSITION TIME  TEMP    WIND        PRES
                       AIR SEA DIR/SP/G
                 (UTC) (F)     (DEG/KT/KT) (MB)
THOMAS PT LIGHT  0000   43 42   60/ 14/ 15   N/A
BALT KEY BRIDGE  0042   43      70/ 11/ 15 1035.8R
COVE POINT       0042   45      70/ 15/ 16 1035.1R
LEWISETTA        0042   45 49   60/ 13/ 18 1034.5R
SOLOMONS ISLAND  0042   45 45   50/ 12/ 16 1034.0F
PINEY POINT      0042           80/ 10/ 13   N/A

$$





USA.gov is the U.S. government's official web portal to all federal, state and local government web resources and services.